Wind_Speed
111 111 111 111 112 113 113 114 115 116 117 118 119 120 121 122 122 123 124 124 124 125 125 125 125 125 125 126 126 126 126 127 127 127 127 127 127 127 127 127 128 128 128 128 129 129 129 129 130 130 130 130 130 130 130 130 130 130 130 130 130 130 130 130 131 131 132 132 132 133 133 134 134 135 136 136 137 137 138 139 139 140 141 142 143 144
115 115 115 114 114 115 115 116 116 116 117 118 119 121 122 123 124 125 126 126 127 127 127 128 128 128 128 129 129 129 130 130 130 130 130 130 130 130 130 130 130 130 130 130 131 131 131 131 131 131 131 131 131 131 131 131 131 131 131 131 131 131 132 132 133 133 133 134 134 135 135 136 137 137 138 139 139 140 141 141 142 143 144 145 146 147
120 119 119 119 118 118 118 118 118 118 118 119 120 121 122 124 125 127 128 128 129 129 129 130 130 130 130 130 131 131 131 131 132 132 132 132 132 132 131 131 131 131 131 131 131 131 132 132 132 132 132 132 132 133 132 133 133 133 133 133 133 134 134 134 135 135 136 136 137 137 138 139 139 140 141 141 142 143 143 144 145 146 147 148 148 149
124 124 124 124 123 122 122 121 121 120 120 121 121 122 123 125 126 128 129 130 130 131 131 131 131 131 131 132 132 131 131 131 132 132 132 132 132 132 132 132 132 132 132 132 132 132 133 133 133 133 134 134 134 134 135 135 135 135 135 136 136 136 137 137 137 138 138 139 139 140 140 141 142 142 143 143 144 145 146 146 147 148 149 150 151 151
128 128 128 127 127 127 126 125 125 124 124 124 124 125 126 127 128 129 130 131 132 132 133 133 133 133 133 133 133 133 133 133 132 133 133 133 133 133 133 133 133 133 133 133 133 134 134 135 135 136 136 136 137 137 137 137 138 138 138 138 139 139 139 139 140 140 141 141 141 142 142 143 143 144 144 145 146 147 148 149 150 151 152 152 153 153
131 131 130 130 130 130 130 129 129 128 128 128 128 128 129 129 130 131 132 133 133 134 134 135 135 135 135 135 135 135 135 135 135 135 135 134 134 134 134 134 135 135 135 135 136 136 137 137 138 138 139 139 139 139 140 140 140 140 140 140 141 141 141 141 142 142 142 142 143 143 143 144 145 145 146 147 148 150 151 152 153 154 154 154 154 154
134 134 133 133 133 133 133 132 132 132 131 131 131 131 132 132 132 133 134 135 135 136 136 136 137 137 137 137 137 137 137 137 137 137 137 136 136 136 136 136 137 137 137 138 138 139 139 140 140 141 141 141 141 142 142 142 142 142 142 142 142 142 142 143 143 143 143 143 144 144 145 146 147 148 149 150 151 153 154 155 156 156 156 156 155 155
137 136 136 135 135 135 136 136 135 135 134 134 134 134 134 134 134 135 135 136 137 137 137 137 138 138 138 139 139 139 139 139 139 139 138 138 138 138 138 138 138 139 139 140 141 141 142 142 143 143 143 143 143 143 143 143 143 143 143 143 143 143 143 143 143 144 144 145 145 146 147 148 149 150 152 153 155 156 157 157 158 157 157 156 155 154
139 139 138 138 138 138 138 139 139 138 137 137 137 136 136 136 136 137 137 137 138 138 138 139 139 139 140 140 140 140 140 140 140 140 140 140 139 139 140 140 140 141 141 142 143 143 144 144 144 144 144 144 144 144 143 143 143 143 143 143 143 144 144 144 145 145 146 146 147 149 150 151 152 154 155 157 158 158 159 159 158 157 156 155 154 153
141 141 141 141 141 141 141 141 142 142 141 140 140 139 139 139 139 139 139 139 140 140 140 140 140 141 141 141 142 142 142 142 142 141 141 141 141 141 141 141 142 142 143 144 144 145 145 145 145 144 144 144 144 143 143 143 143 143 143 144 144 144 145 146 146 147 148 149 150 152 153 155 156 157 158 159 160 160 159 159 157 156 155 153 152 151
143 143 143 143 143 143 144 144 144 144 144 143 143 142 142 142 141 141 141 142 142 142 142 142 142 142 143 143 143 143 143 143 143 143 142 142 142 142 142 143 143 143 144 144 144 145 145 144 144 144 144 143 143 143 143 143 143 144 144 145 145 146 147 148 149 150 152 153 154 156 157 159 160 161 161 161 161 160 159 157 155 154 152 151 150 148
145 145 145 145 145 146 146 146 147 147 146 146 146 145 145 145 145 144 144 144 144 144 144 144 144 144 144 144 144 144 144 144 143 143 143 143 143 143 143 143 143 144 144 144 144 144 144 144 144 143 143 143 143 143 143 144 144 145 146 147 148 149 150 152 153 154 156 157 158 160 161 162 162 162 162 161 160 158 156 154 153 151 150 148 147 146
148 148 148 148 148 148 148 149 149 149 149 149 149 149 148 148 147 147 146 146 146 146 146 145 145 145 146 145 145 145 145 144 144 144 144 144 144 144 144 143 144 144 144 144 144 144 144 144 144 144 144 144 145 145 146 147 148 149 150 151 152 154 155 156 157 159 160 161 162 163 163 164 163 163 161 159 157 155 153 151 149 148 146 145 144 142
150 150 151 151 151 151 151 151 151 152 152 152 152 151 151 150 149 149 148 148 148 148 147 147 146 147 147 147 146 146 145 145 145 145 145 145 145 145 144 144 144 144 144 144 145 145 146 146 146 147 148 148 149 150 151 152 153 154 155 156 158 159 160 161 162 163 163 164 164 164 164 163 162 160 158 155 153 151 149 148 146 145 143 141 139 137
153 153 153 153 154 154 154 154 154 154 154 155 154 154 154 153 152 151 150 150 149 149 149 148 148 148 148 148 148 147 147 146 146 146 146 147 147 147 146 146 146 147 147 147 148 149 150 151 151 152 153 154 155 156 157 158 159 160 161 161 162 163 163 164 164 165 165 165 164 163 162 160 158 155 153 151 149 147 145 144 142 140 139 136 134 132
156 156 156 156 156 157 157 157 157 157 157 157 157 156 156 155 155 154 153 152 152 151 151 150 150 150 151 151 151 150 149 149 149 149 149 150 150 151 151 150 150 151 152 153 154 155 156 157 158 159 159 160 161 161 162 163 163 164 164 165 165 165 165 165 165 164 163 162 161 159 157 155 153 150 148 146 145 143 141 140 138 136 133 131 128 125
159 159 159 159 159 159 159 159 159 159 159 159 159 159 159 158 158 157 156 155 154 154 153 152 152 152 153 153 154 153 153 152 152 152 153 154 155 155 156 155 156 157 158 159 160 161 162 162 163 163 164 164 164 165 165 165 165 165 165 165 165 165 164 163 162 161 159 158 156 154 151 149 147 145 144 142 140 139 137 134 132 130 127 124 122 120
162 161 161 161 161 161 161 161 161 161 161 161 161 161 160 160 160 159 158 158 157 156 155 155 155 154 154 155 155 156 156 155 155 155 156 157 158 159 159 159 160 161 162 163 164 165 165 165 165 165 165 165 165 165 165 165 164 164 164 163 162 161 160 159 157 156 154 152 150 148 146 144 142 141 139 137 135 133 131 128 126 123 121 119 117 115
162 162 161 161 161 161 161 161 161 161 161 161 161 161 161 160 160 160 159 159 158 158 157 157 157 156 156 157 157 158 157 157 157 158 158 159 161 161 162 162 163 164 164 165 165 165 165 164 164 163 163 163 163 163 162 162 161 161 160 159 158 156 155 153 151 149 147 145 144 142 140 139 137 135 133 131 129 126 124 122 119 117 116 114 113 112
159 160 159 159 159 159 159 159 159 159 159 160 159 159 159 159 159 159 159 159 158 158 158 158 158 158 158 158 159 159 158 158 159 160 160 161 162 163 163 163 163 164 164 164 163 162 161 160 160 159 159 159 159 158 158 157 156 156 154 153 152 150 148 147 145 143 141 140 138 137 135 133 131 129 127 124 122 120 118 116 114 113 112 111 110 109
155 155 156 156 156 155 156 156 156 157 157 157 157 157 157 157 157 157 157 157 157 157 158 158 158 158 158 158 159 159 158 158 159 160 161 162 162 162 162 161 161 161 161 159 158 157 156 155 155 154 154 154 153 153 152 151 150 149 148 147 145 144 142 140 139 137 136 134 133 131 129 127 125 122 120 118 116 114 113 112 111 110 109 108 107 106
147 148 149 149 150 150 150 151 151 152 152 152 152 152 153 153 153 154 154 154 155 155 155 156 156 156 156 156 157 157 156 156 157 158 158 159 160 159 157 156 156 155 154 153 152 150 150 149 149 149 148 148 148 147 146 145 144 143 142 140 139 137 136 134 133 131 130 128 126 124 122 120 117 115 113 112 111 110 109 108 108 107 106 105 103 102
137 138 139 140 141 142 142 143 144 145 145 145 146 146 147 147 148 148 149 149 150 150 151 151 151 151 151 152 152 152 152 151 151 152 152 153 153 152 150 149 148 148 147 146 145 144 144 144 143 143 143 142 142 141 140 139 138 137 136 134 133 131 130 128 127 125 123 121 119 117 115 113 111 109 108 107 107 106 106 105 104 103 102 101 99 98
125 126 128 129 130 131 132 133 134 135 136 137 138 138 139 140 140 141 142 142 143 143 143 144 144 145 145 145 145 145 145 144 144 144 144 145 145 144 142 141 141 141 140 139 139 138 138 138 138 137 137 136 136 135 134 133 132 131 130 128 127 125 123 122 120 118 116 114 112 110 108 107 106 105 105 104 104 103 102 101 100 99 98 96 95 94
115 116 117 118 120 121 122 123 124 125 126 127 128 129 130 131 132 133 133 134 134 135 135 136 137 137 137 137 137 138 137 136 136 136 136 136 136 135 135 134 134 134 133 133 133 132 132 132 132 132 131 130 130 129 128 127 126 125 123 122 120 118 116 115 113 111 109 107 106 105 104 103 102 102 101 101 100 99 98 97 96 95 93 93 92 91
106 107 108 109 110 111 112 114 115 116 117 118 119 120 121 122 123 123 124 125 125 126 127 127 128 129 129 129 129 129 129 128 128 127 127 128 128 128 128 127 127 127 127 127 126 126 126 126 126 126 125 124 124 123 122 121 120 118 116 115 113 111 109 108 106 105 103 102 101 101 100 99 99 98 98 97 96 95 94 93 91 90 90 89 89 88
99 100 101 102 103 103 104 105 106 107 108 109 110 111 112 113 114 115 116 116 116 117 118 118 119 120 120 120 121 121 121 121 120 120 120 120 121 121 121 121 120 120 120 120 120 120 120 120 120 120 119 118 117 117 115 114 113 111 110 108 106 105 103 102 101 100 99 98 98 97 96 96 95 95 94 93 92 90 89 88 88 87 86 86 85 83
94 94 95 95 96 97 97 98 99 100 100 101 102 103 104 105 106 107 107 108 108 109 109 110 111 112 112 113 113 114 114 114 113 113 113 113 114 115 115 114 114 114 114 114 114 114 114 114 114 113 113 112 111 110 109 108 106 105 104 102 101 100 99 98 97 96 96 95 94 93 93 92 91 90 89 88 87 86 86 85 84 83 82 81 79 78
89 89 90 90 91 91 92 92 93 93 94 95 96 96 97 98 99 100 100 101 101 102 102 103 104 105 105 106 107 107 108 108 107 107 107 107 108 108 108 108 108 108 108 108 108 108 108 108 108 107 107 106 105 104 103 102 101 100 99 98 97 96 95 94 94 93 92 91 90 90 89 88 87 86 85 84 84 83 82 82 80 79 77 75 73 72
85 85 86 86 86 87 87 88 88 89 89 90 90 91 92 92 93 94 94 95 95 96 97 97 98 99 100 100 101 102 102 102 101 101 101 101 102 102 102 102 102 102 102 102 102 103 103 103 102 102 101 101 100 100 99 98 97 96 95 94 94 93 92 91 90 89 88 87 86 86 85 84 83 82 81 81 81 80 79 77 76 74 72 70 68 67
82 82 82 83 83 83 83 84 84 85 85 86 86 87 87 88 88 89 90 90 91 91 92 93 93 94 95 96 96 97 97 97 96 95 95 96 97 97 97 97 97 97 97 97 97 97 98 98 98 97 97 97 97 96 96 95 94 93 92 91 90 89 88 87 86 85 84 83 82 82 81 80 79 79 78 78 77 76 74 72 70 68 66 65 63 62
79 79 79 80 80 80 80 81 81 81 82 82 83 83 84 84 85 85 86 86 87 87 88 89 90 90 91 91 92 93 93 93 92 91 91 91 92 93 93 93 93 93 93 92 92 93 93 94 94 94 94 94 94 94 93 92 91 90 89 88 87 86 85 83 82 81 80 79 78 77 77 76 76 76 75 74 73 71 69 67 66 64 62 61 60 59
76 76 77 77 77 77 77 78 78 78 79 79 80 80 81 81 82 82 83 83 84 84 85 86 86 87 88 88 89 89 89 89 88 88 88 88 89 89 90 90 90 90 90 89 89 89 89 90 91 91 91 92 91 91 90 89 88 87 86 85 84 82 81 80 78 77 76 75 74 74 73 73 73 72 71 70 68 66 65 63 62 60 59 58 58 58
73 74 74 74 74 75 75 75 75 76 76 76 77 77 78 78 79 79 80 81 81 82 83 83 84 84 85 85 86 86 86 86 85 85 85 85 86 87 87 87 87 87 87 87 86 86 86 87 88 88 89 89 88 88 87 86 85 84 82 81 80 79 77 76 75 73 72 71 71 71 70 70 69 68 66 65 63 62 61 60 59 58 57 57 57 57
71 71 71 71 72 72 72 73 73 73 74 74 74 75 75 76 76 77 77 78 79 80 80 81 81 82 82 82 83 83 83 83 83 82 83 83 84 84 85 85 85 85 84 84 84 84 84 84 85 85 85 85 85 85 84 83 82 81 79 78 77 75 74 72 71 70 69 68 68 68 67 66 65 63 62 61 60 59 58 58 57 57 57 57 57 57
68 69 69 69 69 69 70 70 71 71 71 72 72 72 73 73 74 74 75 76 76 77 78 78 79 79 79 80 80 80 81 80 80 80 80 81 81 81 82 82 82 82 82 82 82 82 82 82 82 82 82 82 82 82 81 80 79 78 76 75 73 72 70 69 67 67 66 66 65 65 63 62 61 60 59 58 58 58 58 57 57 57 57 58 58 58
66 66 66 67 67 67 68 68 68 69 69 69 70 70 71 71 72 72 73 73 74 75 75 75 76 76 76 77 77 78 78 78 78 78 78 78 78 78 79 79 79 79 79 79 79 79 79 79 79 79 79 79 79 79 78 77 76 74 73 71 70 68 67 66 65 64 64 63 62 61 60 59 58 58 57 57 57 58 58 58 58 58 58 59 59 59
64 64 64 64 65 65 65 66 66 67 67 67 68 68 69 69 70 70 71 71 72 72 73 73 73 74 74 74 75 75 75 76 76 75 75 75 75 76 76 76 77 77 76 76 76 76 76 76 76 76 76 76 76 76 75 74 73 71 70 68 67 65 64 63 62 61 61 60 59 58 58 57 57 57 57 57 58 58 58 59 59 59 59 60 60 61
61 62 62 62 63 63 63 64 64 65 65 65 66 66 67 67 68 68 69 69 69 70 70 71 71 71 72 72 72 73 73 73 73 73 73 73 73 73 73 74 74 74 74 74 74 74 73 73 73 73 73 73 73 72 71 70 69 68 66 65 64 63 62 61 60 59 58 57 57 56 56 56 56 56 57 57 58 58 59 59 60 60 61 61 62 62
59 60 60 60 61 61 61 62 62 63 63 64 64 65 65 66 66 66 67 67 67 68 68 68 69 69 70 70 70 70 70 70 70 70 70 70 70 71 71 71 72 72 71 71 71 71 71 71 71 71 70 70 70 69 68 67 66 64 63 62 61 61 60 59 58 56 56 55 55 55 55 55 56 56 57 57 58 59 59 60 61 61 62 62 63 64
57 58 58 58 59 59 60 60 60 61 61 62 62 63 63 64 64 64 65 65 65 66 66 66 67 67 68 68 68 68 68 68 68 68 68 68 68 68 69 69 69 69 69 69 69 68 68 68 68 68 67 67 66 66 65 64 62 61 59 59 59 59 58 57 56 55 54 54 54 54 54 55 55 56 57 58 58 59 60 61 62 63 63 63 64 65
56 56 56 57 57 57 58 58 59 59 60 60 61 61 61 62 62 63 63 63 64 64 64 64 65 65 66 66 66 66 65 65 65 65 65 66 66 66 66 67 67 67 67 67 66 66 66 65 65 65 64 64 63 63 62 61 59 58 57 57 57 57 56 56 55 54 53 53 53 53 54 54 55 56 57 58 59 60 61 62 63 63 64 65 65 65
54 55 55 55 55 56 56 57 57 58 58 58 59 59 60 60 60 61 61 61 62 62 62 62 63 64 64 64 64 64 63 63 63 63 63 64 64 64 64 65 65 64 64 64 64 64 64 63 62 62 61 61 60 59 59 57 56 55 55 54 54 54 54 54 54 53 53 53 53 53 54 54 55 56 57 58 59 61 62 63 63 64 65 66 66 66
53 53 53 54 54 55 55 55 56 56 57 57 57 58 58 58 59 59 59 60 60 60 60 61 61 62 62 62 62 62 61 61 61 61 62 62 62 62 62 62 62 62 62 62 62 62 61 61 60 59 58 58 57 56 55 55 54 54 53 53 52 52 53 53 53 53 53 53 53 53 54 54 55 56 57 58 60 61 62 63 64 65 66 66 67 68
52 52 52 53 53 54 54 54 55 55 55 56 56 56 57 57 57 57 58 58 58 59 59 59 60 60 61 61 60 60 60 59 60 60 60 60 60 60 60 60 60 60 60 60 60 60 59 59 58 57 56 54 54 53 53 52 52 52 52 51 51 51 51 52 52 52 52 53 53 54 54 54 55 56 57 59 60 62 63 64 65 66 67 68 68 68
50 51 51 52 52 52 53 53 54 54 54 55 55 55 56 56 56 56 56 57 57 57 58 58 58 59 59 59 59 58 58 58 59 59 59 59 59 58 58 58 58 58 58 58 58 57 57 56 55 54 53 52 51 51 51 50 50 50 50 50 50 50 51 51 51 51 52 52 53 54 55 55 56 57 58 59 61 62 64 65 66 67 68 69 69 69
49 50 50 50 51 51 52 52 52 53 53 54 54 54 54 54 55 55 55 55 56 56 56 57 57 57 57 57 57 57 57 58 58 58 57 57 57 56 56 56 56 56 56 56 56 55 55 54 53 51 50 50 49 49 49 49 49 49 49 49 50 50 50 50 51 51 51 52 53 54 55 55 56 57 58 59 61 62 64 66 67 68 69 70 70 70
48 48 49 49 50 50 50 51 51 52 52 52 53 53 53 53 53 54 54 54 54 55 55 55 55 55 55 55 55 55 56 56 57 57 56 55 55 54 54 54 54 54 54 54 54 53 53 52 50 49 48 48 48 48 48 48 48 48 48 48 49 49 50 50 50 51 52 52 53 54 55 56 57 57 58 59 61 62 64 66 68 69 70 71 71 71
47 47 48 48 49 49 49 50 50 51 51 51 51 52 52 52 52 52 52 53 53 53 54 54 54 54 54 54 54 54 55 55 55 55 54 53 53 52 52 52 52 52 52 52 52 51 50 50 48 47 46 46 46 47 47 47 47 47 47 48 48 48 49 50 50 51 52 53 54 55 56 56 57 58 58 59 61 62 64 66 68 70 71 71 71 70
46 47 47 47 48 48 48 49 49 49 50 50 50 50 50 50 51 51 51 51 52 52 52 52 52 52 52 52 53 53 53 54 53 53 52 51 51 50 50 50 50 50 50 50 50 49 48 48 47 46 45 45 45 46 46 46 46 47 47 47 48 48 49 49 50 51 52 53 54 55 56 57 58 58 58 59 60 62 63 66 68 70 71 71 70 70
46 46 46 47 47 47 48 48 48 49 49 49 49 49 49 49 49 49 50 50 50 51 51 51 51 51 51 51 52 52 52 52 51 51 50 49 49 49 49 49 49 49 48 48 48 47 47 46 46 45 44 44 44 44 45 45 46 46 47 47 47 48 48 49 50 51 52 53 55 56 57 58 58 59 59 59 60 61 63 65 67 69 70 70 69 69
Wind_Direction
266 267 267 268 269 269 270 271 271 272 273 273 274 275 276 276 277 278 278 279 279 280 280 280 280 281 281 281 281 281 282 282 282 282 282 282 283 283 283 284 284 285 285 286 286 286 287 287 288 288 289 289 290 290 291 291 291 292 292 292 293 293 293 293 294 294 294 294 294 294 295 295 295 295 295 295 295 295 296 296 296 296 296 297 297 297
266 267 268 268 269 270 270 271 271 272 272 273 274 274 275 276 276 277 278 278 279 280 280 281 281 281 282 282 282 282 283 283 283 283 283 284 284 284 285 285 285 286 286 287 287 288 288 288 289 289 290 290 290 291 291 291 291 292 292 292 292 293 293 293 293 293 293 294 294 294 294 294 294 294 295 295 295 295 296 296 296 296 297 297 297 297
267 267 268 269 269 270 270 271 271 272 272 273 274 274 275 275 276 276 277 278 278 279 280 280 281 281 282 282 283 283 283 284 284 285 285 285 286 286 286 286 287 287 287 288 288 289 289 289 290 290 290 290 291 291 291 291 291 292 292 292 292 292 292 293 293 293 293 293 293 294 294 294 294 294 295 295 295 296 296 296 296 297 297 297 297 297
267 268 268 269 269 270 270 270 271 272 272 273 274 274 275 275 276 276 277 277 278 278 279 280 280 281 281 281 282 282 283 283 284 285 285 286 286 286 287 287 287 288 288 288 289 289 289 289 290 290 290 290 291 291 291 291 291 291 292 292 292 292 292 292 293 293 293 293 293 294 294 294 294 295 295 295 295 296 296 296 297 297 297 297 297 297
267 268 268 269 269 270 270 270 271 271 272 273 274 274 275 276 276 277 277 277 278 278 279 279 279 280 280 281 281 281 282 282 283 283 284 284 285 285 286 286 287 287 287 288 288 288 289 289 289 289 290 290 290 290 291 291 291 291 291 292 292 292 292 292 293 293 293 293 293 294 294 294 294 295 295 295 295 295 296 296 296 296 296 296 296 296
267 268 268 269 269 270 270 270 271 271 272 273 274 274 275 276 276 277 277 277 278 278 278 279 279 279 280 280 280 280 281 281 281 282 282 283 283 284 285 285 285 286 286 287 287 287 288 288 288 289 289 289 290 290 290 290 291 291 291 291 292 292 292 292 292 292 293 293 293 293 294 294 294 294 295 295 295 295 295 296 296 296 296 296 296 296
268 268 268 269 269 270 270 270 271 271 272 272 273 274 275 275 276 276 277 277 277 278 278 278 279 279 279 279 280 280 280 280 281 281 281 282 282 283 283 284 284 285 285 286 286 287 287 288 288 288 289 289 289 289 290 290 290 291 291 291 291 291 292 292 292 292 292 292 293 293 293 294 294 294 294 294 295 295 295 295 296 296 296 296 296 296
268 268 268 269 269 270 270 270 271 271 271 272 273 274 274 275 276 276 276 277 277 277 278 278 278 278 279 279 279 279 280 280 280 280 281 281 281 282 282 283 283 284 285 285 286 286 287 287 287 288 288 288 289 289 289 290 290 290 290 291 291 291 291 291 291 291 292 292 292 292 293 293 293 294 294 294 294 295 295 295 295 295 295 296 296 296
268 268 268 269 269 270 270 270 270 271 271 272 272 273 274 275 275 276 276 276 276 277 277 277 277 278 278 278 279 279 279 279 280 280 280 280 281 281 282 282 283 284 284 285 285 286 286 287 287 287 288 288 288 289 289 289 289 289 290 290 290 290 290 290 291 291 291 291 292 292 292 293 293 293 294 294 294 295 295 295 295 295 295 295 295 295
267 268 268 269 269 269 270 270 271 271 271 271 272 273 273 274 275 275 276 276 276 276 276 277 277 277 277 278 278 278 279 279 279 279 280 280 280 281 281 282 283 283 284 284 285 285 286 286 287 287 287 287 288 288 288 288 288 289 289 289 289 289 290 290 290 290 291 291 291 292 292 292 293 293 294 294 294 294 295 295 295 295 295 295 295 295
267 267 268 268 269 269 270 270 271 271 271 271 272 272 273 273 274 275 275 276 276 276 276 276 276 277 277 277 278 278 278 279 279 279 279 280 280 281 281 282 282 283 284 284 285 285 285 286 286 286 286 287 287 287 287 287 287 288 288 288 288 288 289 289 289 290 290 290 291 291 292 292 293 293 293 294 294 294 294 294 294 294 295 295 295 295
267 267 267 268 268 269 269 270 270 271 271 271 272 272 273 273 274 274 275 275 275 276 276 276 276 276 276 277 277 277 278 278 278 279 279 279 280 281 281 282 282 283 283 284 284 284 285 285 285 285 285 286 286 286 286 286 286 286 287 287 287 288 288 288 289 289 290 290 291 291 292 292 293 293 293 293 294 294 294 294 294 294 294 294 294 294
266 267 267 268 268 269 269 270 270 271 271 271 272 272 272 273 273 274 274 275 275 275 275 275 276 276 276 276 277 277 277 277 278 278 279 279 280 280 281 281 282 282 282 283 283 283 284 284 284 284 284 284 284 284 285 285 285 285 286 286 287 287 288 288 289 289 290 290 291 291 292 292 292 293 293 293 293 293 293 293 294 294 294 294 294 294
266 267 267 267 268 268 269 269 270 270 271 271 271 272 272 272 273 273 274 274 274 274 275 275 275 275 275 276 276 276 276 277 277 277 278 278 279 279 280 280 280 281 281 281 282 282 282 283 283 283 283 283 283 283 284 284 284 285 285 286 287 287 288 288 289 289 290 290 291 291 291 292 292 292 292 293 293 293 293 293 293 294 294 294 294 294
266 266 267 267 268 268 269 269 270 270 271 271 271 272 272 272 272 273 273 273 273 274 274 274 274 274 274 275 275 275 275 276 276 276 277 277 278 278 279 279 279 280 280 280 281 281 281 282 282 282 282 283 283 283 284 284 284 285 285 286 286 287 287 288 288 289 289 290 290 291 291 291 291 292 292 292 292 293 293 293 293 293 293 294 294 293
266 267 267 267 268 268 269 269 270 270 270 271 271 272 272 272 272 272 273 273 273 273 273 273 273 273 274 274 274 274 274 274 275 275 276 276 277 277 278 278 278 279 279 280 280 280 281 281 282 282 282 282 283 283 283 284 284 285 285 286 286 287 287 288 288 289 289 290 290 290 291 291 291 291 292 292 292 293 293 293 293 293 293 293 293 293
267 267 267 268 268 268 269 269 269 270 270 271 271 271 272 272 272 272 272 272 272 273 273 273 273 273 273 273 274 274 274 274 274 274 274 275 276 276 277 277 277 278 279 279 280 280 281 281 281 282 282 282 282 283 283 283 284 284 285 285 286 287 287 288 288 289 289 289 290 290 290 291 291 291 292 292 292 292 293 293 293 293 293 293 293 293
267 268 268 268 268 269 269 269 269 270 270 270 271 271 271 272 272 272 272 272 272 272 272 272 272 272 272 273 273 273 274 273 273 274 274 274 275 275 276 277 277 277 278 279 279 280 280 281 281 281 281 282 282 282 283 283 284 284 285 285 286 287 287 288 288 288 289 289 290 290 290 291 291 291 292 292 292 292 293 293 293 293 292 292 292 292
267 267 268 268 268 269 269 269 269 270 270 270 270 271 271 271 271 271 272 272 272 272 272 272 272 272 272 272 273 273 274 274 274 274 274 274 275 276 276 277 277 278 278 279 279 280 280 281 281 281 281 282 282 282 283 283 284 284 285 286 286 287 287 288 288 288 289 289 289 290 290 291 291 291 292 292 292 292 292 292 292 292 292 292 292 292
266 267 267 267 268 268 268 269 269 269 269 270 270 270 270 270 271 271 271 271 271 271 271 272 272 272 272 272 273 273 274 274 274 274 274 275 275 276 277 277 278 278 278 279 279 280 280 280 281 281 281 282 282 282 283 284 284 285 285 286 286 287 287 287 288 288 289 289 289 290 290 290 291 291 291 292 292 292 292 292 292 292 292 292 292 292
266 266 267 267 267 267 268 268 268 269 269 269 269 269 270 270 270 270 270 271 271 271 271 271 271 272 272 272 272 273 274 274 274 274 275 275 276 276 277 277 278 278 279 279 279 280 280 280 281 281 281 282 282 283 283 284 284 285 285 286 286 286 287 287 288 288 289 289 289 290 290 290 291 291 291 291 291 291 291 291 291 291 291 291 292 292
266 266 266 267 267 267 267 268 268 268 268 269 269 269 269 269 270 270 270 270 270 271 271 271 271 272 272 272 273 273 274 274 274 274 275 275 276 276 277 277 278 278 278 279 279 280 280 280 281 281 281 282 282 283 283 284 284 285 285 286 286 286 287 287 288 288 288 289 289 290 290 290 291 291 291 291 291 291 291 291 291 291 291 291 291 291
266 266 266 267 267 267 267 267 268 268 268 268 268 269 269 269 269 270 270 270 270 271 271 271 272 272 272 273 273 273 274 274 274 275 275 275 276 276 277 277 278 278 278 279 279 280 280 280 281 281 282 282 282 283 283 284 284 285 285 286 286 286 287 287 288 288 288 289 289 289 290 290 290 290 291 291 291 291 291 291 291 291 291 291 291 291
266 266 267 267 267 267 267 267 268 268 268 268 268 269 269 269 269 270 270 270 270 271 271 271 272 272 272 273 273 273 274 274 274 275 275 275 276 276 277 277 278 278 278 279 279 280 280 281 281 281 282 282 283 283 283 284 284 285 285 286 286 287 287 287 288 288 288 289 289 289 290 290 290 290 290 290 290 290 291 291 291 291 291 290 290 290
267 267 267 267 267 267 267 267 268 268 268 268 268 269 269 269 269 270 270 270 271 271 271 271 272 272 272 273 273 273 274 274 274 275 275 275 276 276 277 277 277 278 278 279 279 280 280 281 281 281 282 282 283 283 283 284 284 285 285 286 286 286 287 287 288 288 288 289 289 289 290 290 290 290 290 290 290 290 290 290 290 290 290 290 290 290
267 267 267 267 267 267 268 268 268 268 268 268 269 269 269 269 270 270 270 270 271 271 271 272 272 272 273 273 273 273 274 274 274 275 275 275 276 276 277 277 278 278 279 279 280 280 280 281 281 281 282 282 282 283 283 284 284 285 285 286 286 286 287 287 288 288 288 289 289 289 290 290 290 290 290 290 290 290 289 289 289 289 289 290 290 290
267 267 267 267 268 268 268 268 268 268 268 269 269 269 269 270 270 270 270 270 271 271 271 272 272 272 273 273 273 274 274 274 275 275 275 276 276 276 277 278 278 278 279 279 280 280 280 281 281 281 282 282 282 283 283 284 284 285 285 286 286 286 287 287 288 288 288 289 289 289 289 289 289 289 289 289 289 289 289 289 289 289 290 290 290 290
267 267 268 268 268 268 268 268 268 269 269 269 269 269 270 270 270 270 270 271 271 271 272 272 272 272 273 273 273 274 274 274 275 275 276 276 276 277 277 278 278 279 279 279 280 280 280 280 281 281 282 282 283 283 283 284 284 285 285 286 286 286 287 287 288 288 288 289 289 289 289 289 289 289 289 289 289 289 289 289 289 289 290 290 290 290
268 268 268 268 268 268 269 269 269 269 269 269 270 270 270 270 270 271 271 271 272 272 272 272 272 273 273 273 274 274 274 275 275 276 276 277 277 277 278 278 278 279 279 279 280 280 280 280 281 281 282 282 283 283 283 284 284 285 285 286 286 287 287 287 288 288 288 289 289 289 289 289 289 289 289 288 288 289 289 289 289 290 290 290 290 290
268 268 268 269 269 269 269 269 269 270 270 270 270 270 271 271 271 271 272 272 272 272 273 273 273 273 274 274 274 275 275 275 276 276 277 277 277 277 278 278 278 278 279 279 279 280 280 281 281 282 282 283 283 283 284 284 285 285 286 286 286 287 287 288 288 288 289 289 289 289 289 289 289 288 288 288 289 289 289 289 289 290 290 290 290 291
269 269 269 269 269 270 270 270 270 270 271 271 271 271 271 272 272 272 272 273 273 273 273 273 274 274 274 274 275 275 275 276 276 277 277 277 277 277 278 278 278 278 279 279 279 280 281 281 282 282 282 283 283 283 284 284 285 285 286 286 287 287 287 288 288 288 289 289 289 289 289 288 288 288 288 289 289 289 289 290 290 290 290 291 291 291
269 270 270 270 270 270 271 271 271 271 271 272 272 272 272 272 273 273 273 273 273 274 274 274 274 274 274 275 275 275 276 276 277 277 277 277 278 278 278 278 278 279 279 279 280 280 281 281 282 282 283 283 283 283 284 284 285 285 286 286 287 287 287 288 288 288 289 289 288 288 288 288 288 288 289 289 289 289 290 290 290 290 291 291 291 292
270 270 270 270 271 271 271 271 271 272 272 272 272 272 273 273 273 273 273 274 274 274 274 274 274 275 275 275 275 276 276 277 277 278 278 278 278 278 278 279 279 279 280 280 280 281 281 281 282 282 283 283 283 284 284 285 285 286 286 286 287 287 288 288 288 288 288 288 288 288 288 288 288 288 289 289 289 290 290 290 290 291 291 291 292 292
270 270 270 271 271 271 271 272 272 272 272 272 273 273 273 273 273 273 274 274 274 274 274 274 275 275 275 276 276 276 277 277 278 278 278 278 278 278 279 279 280 280 281 281 281 281 281 281 282 282 283 283 284 284 284 285 285 286 286 287 287 288 288 288 288 288 288 288 288 287 288 288 288 288 289 289 289 290 290 290 291 291 291 291 291 291
270 271 271 271 271 272 272 272 272 272 273 273 273 273 273 273 273 274 274 274 274 274 274 275 275 275 276 276 277 277 277 278 278 278 278 278 279 279 280 280 280 281 281 281 281 281 281 281 282 282 282 283 283 284 284 285 286 286 287 287 288 288 288 288 288 288 287 287 287 287 287 288 288 288 289 289 289 289 290 290 290 290 290 290 291 291
271 271 271 272 272 272 272 272 273 273 273 273 273 273 274 274 274 274 274 274 274 275 275 275 276 276 276 277 277 278 278 278 278 279 279 279 279 280 280 280 281 281 281 281 281 281 281 282 282 282 282 283 283 284 284 285 286 286 287 287 288 288 288 288 287 287 287 287 287 287 287 288 288 288 288 289 289 289 289 289 290 290 290 290 290 290
272 272 272 272 273 273 273 273 273 273 274 274 274 274 274 274 274 274 274 275 275 275 276 276 276 277 277 277 278 278 278 278 279 279 279 279 280 280 280 280 281 281 281 281 281 281 281 281 282 282 282 282 283 283 284 285 286 287 287 287 288 288 287 287 287 287 287 287 287 287 288 288 288 288 289 289 289 289 289 290 290 290 290 290 290 290
273 273 273 273 273 274 274 274 274 274 274 274 274 274 275 275 275 275 275 275 276 276 276 277 277 277 277 278 278 278 278 279 279 279 280 280 280 280 280 280 280 280 281 281 281 281 281 281 281 282 282 282 283 284 284 285 286 287 287 287 287 287 287 286 286 287 287 287 287 287 288 288 289 289 289 290 290 290 290 291 291 291 291 291 291 291
274 274 274 274 274 274 274 275 275 275 275 275 275 275 275 275 275 275 276 276 276 277 277 277 277 278 278 278 278 278 279 279 279 280 280 280 280 280 280 280 280 280 280 280 280 280 281 281 281 282 282 283 283 284 285 285 286 287 287 287 287 286 286 286 286 286 287 287 288 288 288 289 289 290 290 290 291 291 291 292 292 292 293 293 293 293
275 275 275 275 275 275 275 275 275 275 275 275 275 275 275 276 276 276 276 277 277 277 277 277 278 278 278 278 278 278 279 279 279 280 280 280 280 280 280 279 280 280 280 280 280 280 281 281 281 282 282 283 284 284 285 286 286 286 286 286 286 286 286 286 286 286 287 287 288 289 289 290 290 290 291 291 292 292 293 293 294 294 294 295 295 295
275 275 275 276 275 275 275 276 276 275 275 275 276 276 276 276 276 276 277 277 277 277 278 278 278 278 278 278 278 278 279 279 279 280 280 280 279 279 279 279 279 280 280 280 280 280 281 281 282 282 283 283 284 285 285 285 285 285 285 285 285 285 286 286 286 287 287 288 288 289 290 290 291 292 292 293 293 294 294 295 295 295 296 296 296 297
276 276 276 276 276 276 276 276 276 276 276 276 276 276 276 276 277 277 277 277 277 278 278 278 278 278 278 278 278 279 279 279 279 280 280 279 279 279 279 279 280 280 280 280 281 281 281 282 282 283 283 284 284 284 285 285 285 284 284 285 285 286 286 287 287 288 288 289 289 290 291 291 292 293 293 294 294 295 295 295 296 296 297 297 298 298
277 277 277 277 277 276 276 276 276 276 276 276 276 277 277 277 277 277 278 278 278 278 278 278 278 278 278 278 279 279 279 279 280 280 279 279 279 279 279 280 280 280 281 281 281 281 282 282 283 283 283 284 284 284 284 284 284 284 284 285 285 286 287 288 288 289 290 290 291 291 292 292 293 294 294 295 295 296 296 297 297 298 298 299 299 299
278 278 278 277 277 277 277 277 277 277 277 277 277 277 277 278 278 278 278 278 278 279 279 279 278 279 279 279 279 280 280 280 280 279 279 279 279 280 280 280 281 281 281 281 282 282 282 283 283 283 283 283 283 283 283 283 283 284 284 285 286 287 287 288 289 290 291 291 292 292 293 293 294 294 295 296 296 297 297 298 298 299 300 300 300 300
278 278 278 278 278 278 278 278 278 278 278 278 278 278 278 278 279 279 279 279 279 279 279 279 279 279 279 279 280 280 280 280 279 279 279 279 280 280 281 281 281 281 282 282 282 282 283 283 283 283 283 283 282 282 282 283 283 284 285 286 287 287 288 289 290 291 292 292 293 293 293 294 295 295 296 297 297 298 299 299 300 301 301 301 301 301
278 278 278 278 278 278 278 278 278 279 279 279 279 279 279 279 279 279 279 279 279 279 279 279 279 279 279 280 280 280 280 280 279 279 279 280 280 281 281 281 282 282 282 282 282 283 283 283 283 283 283 282 282 282 282 283 284 285 286 287 287 288 288 289 290 291 292 292 293 294 294 295 296 296 297 298 299 299 300 301 301 301 302 301 301 301
279 279 279 279 279 279 279 279 279 279 279 279 279 279 279 279 279 279 279 279 279 279 279 279 279 279 280 280 280 280 280 279 279 279 280 280 281 281 282 282 282 282 282 282 283 283 283 283 283 282 282 282 281 282 282 283 284 285 286 287 288 289 289 290 291 291 292 293 293 294 295 296 296 297 298 299 300 300 301 301 302 302 302 302 302 302
279 279 279 279 279 279 279 279 279 279 279 279 279 279 279 279 280 279 279 279 279 279 279 279 279 280 280 280 280 280 279 279 279 280 280 281 282 282 282 282 282 282 282 282 283 283 282 282 282 281 281 281 282 282 283 284 285 286 287 288 288 289 290 290 291 292 292 293 294 295 295 296 297 298 299 300 300 301 302 302 302 302 302 301 301 301
280 280 280 280 280 280 279 280 279 279 279 279 279 280 279 279 279 279 279 279 279 279 279 279 280 280 280 279 279 279 279 279 280 281 281 282 282 282 282 282 282 282 282 282 282 282 282 281 281 281 281 281 282 283 284 285 286 287 287 288 289 289 290 291 292 293 294 294 295 295 296 296 297 298 299 300 301 302 302 302 302 302 301 301 301 301
281 281 281 281 281 280 280 280 280 280 280 280 280 280 280 280 280 280 280 279 279 279 280 280 280 280 280 279 279 279 279 280 280 281 282 283 283 283 283 283 283 283 283 283 282 282 281 281 281 280 281 282 283 284 285 286 287 288 288 289 289 290 291 292 293 294 294 295 295 296 296 297 298 298 299 300 301 302 302 302 301 301 301 301 301 301
282 282 282 282 282 281 281 281 281 281 281 281 281 280 280 280 280 280 280 280 280 280 280 280 280 280 280 279 279 280 280 281 281 282 283 283 283 284 283 283 283 283 283 283 282 282 281 281 281 281 281 282 283 285 286 287 288 288 289 289 290 291 292 292 293 294 295 295 296 296 297 297 298 299 300 301 302 302 302 301 301 301 300 300 301 301
Height
10590 10589 10590 10591 10591 10590 10589 10587 10588 10589 10587 10585 10584 10583 10582 10580 10577 10575 10574 10572 10570 10569 10568 10567 10567 10567 10567 10566 10565 10565 10564 10564 10564 10563 10563 10562 10562 10560 10560 10559 10557 10556 10555 10554 10552 10552 10550 10549 10548 10547 10546 10544 10543 10541 10539 10538 10536 10534 10532 10530 10528 10526 10524 10522 10520 10518 10516 10514 10512 10510 10509 10507 10506 10504 10503 10501 10500 10499 10497 10495 10494 10492 10490 10488 10485 10484
10584 10582 10582 10584 10584 10584 10582 10580 10581 10582 10582 10580 10578 10577 10576 10575 10572 10570 10568 10566 10564 10562 10561 10559 10559 10557 10557 10555 10554 10554 10552 10552 10551 10550 10550 10550 10550 10550 10549 10548 10547 10546 10545 10544 10542 10541 10540 10539 10537 10536 10535 10534 10532 10531 10530 10529 10527 10525 10524 10522 10520 10519 10517 10515 10514 10512 10510 10508 10506 10504 10502 10501 10499 10497 10495 10494 10492 10490 10489 10487 10485 10483 10480 10478 10475 10473
10576 10575 10575 10575 10576 10577 10576 10574 10574 10575 10575 10574 10572 10570 10570 10569 10567 10564 10562 10561 10559 10557 10555 10554 10552 10551 10549 10547 10545 10544 10543 10541 10539 10538 10537 10537 10537 10537 10537 10536 10535 10534 10533 10532 10531 10530 10529 10527 10526 10525 10524 10523 10522 10521 10520 10519 10517 10516 10515 10514 10512 10510 10509 10507 10505 10504 10502 10500 10499 10497 10495 10493 10491 10489 10487 10485 10483 10481 10479 10477 10475 10472 10470 10468 10465 10463
10569 10569 10567 10566 10567 10569 10569 10567 10567 10567 10568 10567 10565 10565 10564 10563 10561 10559 10557 10555 10554 10553 10550 10549 10547 10546 10544 10542 10540 10539 10537 10535 10534 10531 10529 10528 10527 10526 10526 10525 10525 10524 10523 10522 10521 10520 10519 10517 10517 10515 10514 10514 10512 10512 10510 10510 10509 10507 10506 10505 10503 10502 10500 10499 10497 10495 10494 10492 10490 10487 10485 10484 10482 10480 10477 10475 10474 10471 10469 10467 10465 10463 10461 10459 10457 10454
10559 10560 10560 10559 10559 10560 10560 10559 10560 10560 10560 10559 10559 10558 10557 10556 10554 10552 10550 10549 10549 10547 10545 10544 10542 10540 10539 10537 10535 10534 10533 10532 10530 10527 10525 10524 10522 10520 10519 10519 10517 10517 10515 10514 10513 10512 10511 10510 10509 10507 10506 10505 10504 10503 10502 10501 10500 10499 10497 10495 10494 10492 10491 10489 10487 10485 10484 10482 10480 10478 10476 10474 10472 10470 10468 10466 10464 10462 10460 10458 10456 10454 10452 10450 10448 10446
10549 10551 10552 10552 10551 10550 10550 10551 10552 10552 10552 10552 10550 10550 10550 10549 10547 10545 10544 10542 10540 10540 10539 10537 10535 10534 10532 10531 10529 10528 10527 10526 10524 10523 10521 10520 10518 10517 10515 10514 10512 10510 10509 10508 10507 10505 10504 10503 10502 10500 10499 10497 10496 10495 10494 10492 10491 10490 10488 10487 10485 10483 10482 10480 10478 10476 10474 10472 10470 10469 10467 10465 10463 10461 10459 10457 10455 10454 10452 10450 10448 10446 10444 10442 10439 10437
10540 10541 10543 10543 10542 10542 10542 10542 10544 10544 10544 10544 10543 10542 10542 10541 10540 10539 10537 10534 10533 10532 10531 10530 10529 10527 10525 10524 10522 10521 10520 10519 10517 10516 10515 10514 10513 10511 10510 10508 10507 10505 10504 10502 10500 10499 10497 10496 10494 10493 10492 10490 10489 10487 10486 10484 10482 10481 10479 10477 10476 10474 10472 10470 10469 10467 10465 10464 10462 10460 10458 10456 10454 10452 10450 10449 10447 10445 10444 10442 10439 10437 10435 10432 10430 10427
10531 10532 10532 10534 10534 10533 10533 10533 10534 10535 10536 10537 10536 10535 10534 10533 10532 10531 10529 10527 10526 10525 10524 10522 10521 10519 10517 10515 10514 10514 10512 10511 10510 10509 10508 10507 10506 10504 10503 10502 10500 10499 10497 10495 10494 10492 10490 10489 10487 10485 10484 10482 10481 10479 10477 10476 10474 10472 10470 10469 10467 10465 10464 10462 10460 10458 10457 10455 10453 10452 10450 10448 10446 10444 10442 10440 10439 10437 10435 10432 10430 10428 10425 10422 10419 10416
10523 10523 10523 10523 10524 10525 10525 10524 10524 10525 10527 10529 10529 10527 10526 10525 10524 10523 10521 10520 10519 10517 10516 10515 10514 10512 10509 10507 10507 10506 10505 10504 10502 10501 10500 10499 10498 10497 10495 10494 10492 10491 10489 10488 10486 10484 10482 10481 10479 10477 10476 10474 10473 10471 10469 10467 10465 10464 10462 10460 10458 10457 10455 10453 10452 10450 10448 10447 10445 10443 10442 10440 10438 10436 10434 10432 10430 10428 10425 10424 10420 10418 10415 10412 10409 10405
10514 10514 10514 10514 10514 10515 10516 10515 10514 10514 10517 10520 10520 10519 10517 10517 10516 10515 10513 10512 10510 10509 10509 10509 10507 10504 10501 10500 10499 10499 10498 10496 10494 10492 10492 10490 10490 10489 10487 10486 10485 10483 10482 10480 10478 10476 10475 10473 10471 10470 10468 10466 10464 10462 10460 10459 10457 10455 10454 10452 10450 10448 10447 10445 10444 10442 10440 10439 10437 10435 10434 10432 10430 10428 10426 10424 10422 10419 10417 10414 10410 10407 10404 10401 10397 10394
10505 10505 10505 10506 10506 10506 10507 10507 10506 10505 10507 10510 10511 10510 10508 10508 10507 10507 10505 10503 10501 10500 10500 10501 10499 10497 10494 10492 10491 10490 10490 10489 10487 10485 10483 10482 10481 10480 10479 10477 10476 10475 10473 10472 10470 10468 10466 10465 10464 10462 10460 10459 10456 10454 10452 10451 10449 10447 10445 10444 10442 10440 10439 10438 10436 10435 10433 10432 10430 10428 10426 10424 10422 10419 10417 10415 10412 10409 10407 10404 10400 10397 10394 10390 10387 10383
10496 10496 10497 10497 10498 10497 10497 10497 10497 10497 10498 10500 10500 10500 10498 10497 10497 10498 10499 10496 10493 10491 10492 10492 10490 10489 10487 10485 10484 10483 10482 10481 10479 10477 10474 10473 10472 10471 10470 10469 10467 10466 10464 10463 10462 10460 10459 10457 10455 10454 10453 10450 10449 10447 10445 10444 10442 10440 10439 10437 10435 10434 10432 10430 10429 10427 10426 10424 10422 10420 10417 10415 10413 10410 10408 10405 10402 10399 10397 10393 10390 10386 10383 10379 10375 10372
10486 10487 10487 10489 10489 10489 10488 10488 10488 10488 10489 10489 10490 10490 10489 10487 10487 10489 10490 10489 10485 10483 10483 10483 10482 10480 10478 10477 10476 10475 10474 10472 10470 10469 10467 10465 10464 10463 10462 10461 10460 10458 10456 10455 10454 10452 10450 10449 10449 10447 10445 10444 10442 10440 10439 10437 10435 10434 10432 10430 10429 10427 10425 10424 10422 10420 10418 10415 10414 10411 10408 10405 10403 10400 10398 10395 10392 10389 10386 10383 10379 10376 10372 10369 10365 10362
10477 10477 10477 10479 10479 10479 10478 10479 10479 10479 10479 10478 10478 10479 10480 10479 10480 10481 10482 10480 10477 10475 10474 10475 10474 10472 10469 10468 10468 10468 10467 10465 10462 10460 10459 10457 10456 10455 10454 10454 10452 10450 10448 10447 10446 10445 10442 10441 10441 10440 10439 10436 10434 10433 10431 10429 10427 10426 10424 10423 10421 10419 10418 10416 10414 10412 10410 10407 10404 10402 10399 10396 10394 10390 10388 10385 10382 10379 10375 10372 10369 10365 10362 10358 10355 10351
10467 10467 10468 10469 10469 10468 10467 10469 10469 10469 10468 10467 10467 10469 10470 10471 10471 10472 10472 10471 10469 10467 10466 10467 10466 10464 10460 10459 10460 10460 10460 10458 10456 10454 10451 10449 10448 10447 10447 10448 10446 10444 10440 10439 10439 10438 10435 10434 10434 10433 10431 10429 10426 10424 10423 10421 10419 10417 10416 10414 10413 10411 10409 10407 10405 10403 10401 10398 10395 10392 10389 10387 10384 10380 10377 10375 10371 10368 10365 10362 10358 10355 10351 10347 10344 10340
10456 10457 10459 10459 10459 10457 10457 10458 10459 10459 10459 10457 10457 10459 10460 10461 10461 10460 10460 10462 10461 10460 10459 10459 10458 10455 10452 10450 10450 10452 10453 10452 10450 10447 10444 10442 10440 10439 10439 10440 10440 10437 10433 10431 10430 10430 10429 10427 10425 10424 10422 10420 10417 10415 10414 10412 10410 10409 10407 10405 10404 10402 10400 10398 10396 10394 10392 10389 10386 10383 10380 10377 10374 10370 10367 10364 10361 10358 10354 10351 10347 10344 10340 10337 10334 10330
10445 10447 10448 10449 10448 10447 10446 10447 10447 10448 10448 10447 10447 10448 10450 10450 10450 10450 10450 10451 10451 10450 10449 10449 10449 10447 10444 10442 10440 10441 10444 10445 10444 10440 10437 10435 10433 10432 10430 10432 10433 10431 10427 10422 10421 10421 10421 10419 10417 10415 10412 10410 10408 10406 10404 10402 10400 10399 10397 10395 10394 10392 10390 10389 10386 10384 10382 10379 10376 10373 10370 10367 10364 10360 10357 10354 10351 10347 10344 10341 10337 10334 10330 10327 10324 10320
10435 10435 10436 10437 10437 10437 10435 10435 10436 10437 10437 10437 10437 10438 10439 10439 10439 10439 10439 10439 10439 10439 10439 10438 10437 10437 10435 10433 10430 10430 10430 10434 10435 10434 10430 10425 10424 10422 10422 10423 10424 10423 10419 10415 10412 10412 10412 10410 10408 10405 10402 10400 10398 10396 10394 10392 10390 10389 10387 10385 10384 10382 10380 10379 10376 10374 10372 10369 10366 10363 10360 10357 10354 10350 10347 10344 10341 10338 10335 10331 10328 10324 10320 10317 10314 10311
10424 10424 10425 10425 10426 10425 10425 10425 10425 10426 10426 10426 10427 10427 10427 10427 10427 10427 10428 10428 10428 10427 10427 10427 10427 10425 10424 10423 10421 10420 10419 10422 10425 10425 10421 10417 10413 10411 10411 10412 10414 10413 10410 10405 10403 10402 10402 10400 10398 10395 10392 10390 10388 10386 10384 10382 10380 10379 10378 10376 10374 10372 10370 10369 10367 10364 10362 10359 10356 10354 10350 10347 10344 10341 10338 10335 10332 10329 10325 10322 10319 10315 10311 10308 10305 10302
10414 10414 10414 10415 10415 10415 10415 10415 10415 10415 10415 10416 10416 10417 10417 10417 10416 10416 10416 10417 10417 10416 10416 10416 10415 10414 10413 10412 10411 10410 10410 10412 10414 10414 10412 10407 10404 10401 10400 10401 10402 10402 10400 10395 10393 10392 10392 10391 10388 10385 10382 10380 10379 10377 10375 10373 10371 10370 10369 10367 10365 10363 10361 10359 10357 10355 10352 10350 10347 10344 10341 10338 10335 10332 10329 10326 10323 10319 10316 10312 10309 10305 10302 10299 10295 10292
10404 10403 10403 10404 10405 10405 10405 10405 10404 10404 10405 10406 10407 10406 10405 10405 10405 10405 10405 10405 10405 10405 10405 10405 10404 10403 10402 10401 10401 10401 10400 10401 10404 10404 10402 10398 10394 10392 10390 10390 10392 10392 10390 10385 10382 10382 10382 10381 10379 10374 10371 10370 10369 10367 10365 10364 10362 10360 10359 10357 10355 10354 10352 10350 10348 10345 10343 10340 10338 10335 10332 10329 10326 10324 10320 10317 10314 10310 10307 10304 10300 10297 10293 10290 10287 10284
10393 10393 10392 10393 10394 10395 10395 10394 10394 10394 10395 10396 10396 10395 10394 10394 10394 10394 10394 10394 10394 10394 10394 10393 10392 10392 10392 10392 10392 10391 10390 10391 10393 10394 10392 10389 10385 10382 10380 10380 10382 10382 10380 10375 10372 10372 10372 10371 10368 10364 10362 10361 10360 10358 10356 10354 10353 10351 10350 10348 10347 10345 10343 10341 10339 10337 10334 10332 10329 10327 10324 10321 10318 10315 10312 10309 10305 10302 10299 10295 10291 10288 10285 10282 10279 10276
10383 10383 10382 10383 10384 10385 10385 10384 10384 10384 10384 10385 10385 10385 10384 10384 10384 10384 10384 10383 10383 10383 10383 10382 10382 10382 10382 10382 10381 10380 10380 10380 10382 10383 10383 10381 10377 10373 10370 10370 10372 10373 10370 10365 10363 10363 10363 10360 10357 10354 10353 10352 10350 10349 10346 10345 10344 10342 10340 10339 10337 10336 10334 10332 10330 10328 10325 10324 10321 10319 10316 10313 10310 10307 10304 10301 10297 10294 10290 10287 10284 10280 10277 10274 10272 10269
10373 10373 10373 10373 10374 10374 10374 10374 10374 10374 10374 10374 10374 10374 10374 10374 10374 10374 10374 10373 10373 10373 10373 10372 10372 10372 10371 10370 10370 10370 10370 10370 10371 10372 10373 10372 10368 10364 10361 10362 10363 10363 10360 10356 10354 10354 10354 10350 10347 10344 10343 10342 10341 10339 10337 10335 10334 10333 10331 10330 10329 10327 10325 10324 10322 10320 10317 10315 10313 10310 10308 10305 10302 10299 10296 10292 10289 10285 10282 10279 10276 10273 10270 10267 10264 10260
10364 10364 10364 10364 10364 10364 10364 10364 10364 10364 10364 10364 10364 10364 10364 10364 10364 10364 10364 10364 10364 10364 10363 10363 10362 10362 10360 10360 10360 10360 10360 10360 10361 10363 10364 10362 10359 10355 10353 10353 10354 10353 10350 10347 10345 10345 10344 10341 10337 10334 10334 10333 10332 10329 10328 10327 10325 10324 10323 10322 10320 10319 10317 10315 10314 10312 10309 10307 10305 10303 10300 10297 10294 10291 10288 10285 10282 10279 10275 10272 10269 10266 10263 10260 10257 10254
10355 10355 10355 10355 10355 10355 10355 10355 10355 10355 10355 10355 10355 10355 10355 10355 10355 10354 10354 10354 10354 10354 10354 10354 10353 10352 10351 10351 10351 10350 10349 10349 10351 10353 10354 10352 10349 10347 10344 10344 10345 10345 10342 10339 10337 10336 10335 10332 10328 10325 10324 10324 10322 10320 10319 10318 10317 10315 10315 10314 10312 10311 10309 10308 10306 10304 10302 10300 10297 10295 10292 10289 10287 10284 10280 10277 10274 10271 10268 10265 10262 10259 10256 10253 10250 10247
10347 10347 10347 10347 10347 10347 10347 10347 10347 10347 10347 10347 10347 10346 10346 10346 10346 10345 10345 10345 10345 10345 10346 10345 10344 10343 10342 10342 10342 10340 10340 10340 10342 10343 10343 10342 10340 10338 10335 10335 10335 10335 10334 10330 10329 10327 10325 10322 10319 10317 10315 10315 10313 10312 10311 10310 10309 10308 10307 10306 10305 10304 10302 10300 10299 10297 10295 10292 10290 10287 10285 10282 10279 10276 10273 10270 10267 10264 10260 10258 10255 10252 10250 10247 10244 10240
10339 10339 10339 10339 10339 10339 10339 10339 10339 10339 10339 10339 10339 10339 10338 10338 10337 10337 10336 10336 10337 10338 10337 10337 10335 10335 10334 10333 10332 10331 10330 10331 10332 10333 10334 10334 10332 10329 10327 10327 10327 10327 10325 10322 10320 10319 10316 10314 10311 10309 10307 10306 10305 10304 10302 10302 10301 10300 10299 10299 10297 10296 10295 10293 10291 10289 10287 10285 10282 10280 10277 10274 10271 10268 10265 10262 10259 10256 10254 10251 10249 10246 10244 10240 10237 10234
10332 10332 10332 10332 10332 10331 10331 10331 10331 10331 10331 10331 10331 10330 10330 10330 10330 10329 10328 10329 10329 10329 10329 10327 10327 10327 10326 10324 10323 10322 10322 10322 10323 10324 10325 10325 10324 10320 10319 10319 10319 10318 10317 10315 10312 10310 10307 10305 10303 10302 10300 10298 10297 10295 10294 10294 10293 10292 10292 10291 10290 10289 10287 10286 10284 10282 10280 10278 10275 10272 10270 10267 10264 10260 10258 10255 10252 10249 10247 10244 10242 10240 10237 10234 10232 10229
10325 10325 10324 10324 10324 10324 10324 10324 10324 10324 10324 10324 10324 10323 10323 10322 10322 10321 10320 10321 10321 10321 10320 10319 10319 10319 10318 10316 10315 10314 10313 10314 10315 10317 10319 10317 10315 10312 10312 10312 10310 10309 10309 10307 10305 10302 10299 10297 10295 10294 10293 10290 10289 10287 10286 10285 10285 10285 10284 10284 10282 10281 10280 10279 10277 10275 10273 10270 10268 10265 10262 10259 10256 10254 10250 10248 10245 10242 10240 10238 10235 10234 10231 10229 10225 10223
10317 10317 10317 10317 10317 10317 10317 10317 10317 10317 10317 10317 10316 10316 10315 10315 10315 10314 10314 10314 10314 10313 10312 10312 10311 10310 10310 10309 10307 10305 10304 10305 10308 10310 10311 10309 10307 10305 10304 10304 10302 10301 10301 10301 10299 10296 10292 10289 10287 10286 10285 10283 10281 10279 10279 10279 10278 10278 10277 10276 10275 10274 10273 10272 10270 10268 10266 10264 10260 10258 10255 10252 10249 10246 10244 10241 10239 10236 10234 10232 10230 10227 10225 10223 10220 10217
10311 10310 10310 10310 10310 10311 10310 10310 10310 10310 10310 10310 10309 10309 10309 10309 10308 10307 10307 10307 10306 10305 10305 10304 10304 10303 10302 10302 10300 10299 10297 10298 10300 10303 10304 10302 10299 10297 10297 10295 10294 10293 10293 10294 10292 10290 10287 10284 10280 10278 10277 10275 10273 10272 10272 10271 10271 10271 10270 10269 10268 10267 10266 10265 10264 10261 10259 10256 10254 10250 10248 10245 10242 10240 10237 10235 10232 10230 10227 10225 10224 10222 10220 10217 10215 10212
10305 10304 10304 10304 10304 10304 10304 10304 10304 10304 10304 10303 10303 10303 10302 10302 10301 10301 10300 10300 10299 10299 10298 10297 10296 10295 10295 10294 10294 10292 10292 10292 10293 10295 10295 10294 10291 10289 10289 10287 10286 10285 10285 10285 10285 10284 10282 10278 10275 10272 10269 10267 10265 10265 10264 10264 10264 10264 10263 10262 10261 10260 10259 10258 10256 10254 10252 10249 10247 10244 10242 10239 10236 10234 10231 10229 10226 10224 10222 10220 10218 10216 10214 10212 10210 10208
10299 10299 10299 10299 10299 10298 10298 10298 10297 10297 10297 10297 10297 10297 10296 10295 10295 10294 10294 10293 10292 10292 10291 10290 10289 10289 10288 10288 10287 10286 10285 10285 10287 10287 10287 10286 10284 10282 10280 10280 10279 10278 10278 10277 10277 10276 10274 10272 10269 10266 10263 10260 10259 10257 10257 10257 10257 10257 10256 10255 10254 10253 10252 10251 10249 10247 10245 10242 10240 10237 10235 10233 10230 10228 10225 10223 10220 10218 10216 10214 10212 10211 10209 10208 10205 10204
10292 10292 10292 10292 10292 10292 10292 10292 10292 10291 10291 10290 10290 10290 10290 10289 10289 10288 10287 10287 10286 10285 10284 10284 10283 10282 10282 10281 10280 10280 10279 10279 10280 10280 10280 10279 10277 10275 10274 10272 10272 10271 10270 10270 10269 10268 10267 10265 10263 10260 10258 10255 10252 10251 10250 10250 10250 10250 10250 10249 10248 10247 10245 10244 10242 10240 10238 10236 10234 10232 10229 10227 10225 10222 10220 10217 10215 10213 10211 10209 10207 10206 10205 10203 10202 10200
10286 10286 10287 10287 10287 10286 10286 10285 10285 10285 10285 10284 10284 10284 10284 10283 10282 10282 10281 10280 10279 10279 10278 10277 10277 10276 10275 10275 10274 10273 10272 10272 10273 10273 10272 10272 10270 10269 10267 10265 10265 10265 10264 10262 10262 10260 10259 10257 10256 10255 10253 10250 10247 10245 10244 10244 10244 10244 10243 10242 10242 10240 10239 10237 10235 10234 10232 10230 10227 10225 10224 10221 10219 10217 10214 10212 10210 10208 10206 10204 10203 10201 10200 10199 10197 10195
10280 10280 10280 10281 10281 10280 10280 10280 10279 10279 10279 10278 10278 10277 10277 10276 10275 10275 10275 10274 10274 10272 10272 10271 10271 10270 10270 10269 10268 10267 10266 10266 10266 10266 10265 10265 10264 10263 10261 10259 10259 10258 10257 10256 10255 10254 10253 10251 10250 10248 10247 10245 10242 10240 10239 10238 10238 10238 10237 10236 10235 10234 10232 10231 10230 10228 10226 10224 10222 10219 10217 10215 10213 10211 10209 10207 10205 10202 10200 10199 10197 10195 10194 10192 10191 10189
10275 10275 10275 10275 10275 10275 10274 10274 10274 10273 10273 10272 10272 10271 10270 10270 10269 10269 10269 10268 10267 10267 10266 10265 10265 10264 10264 10263 10262 10261 10260 10260 10260 10259 10259 10259 10258 10257 10255 10254 10252 10252 10251 10250 10249 10247 10247 10245 10244 10242 10240 10239 10237 10236 10234 10233 10232 10232 10230 10230 10229 10227 10225 10225 10224 10222 10220 10218 10216 10214 10212 10210 10207 10205 10203 10201 10199 10197 10195 10193 10191 10189 10188 10186 10184 10183
10270 10270 10269 10269 10269 10269 10269 10268 10268 10267 10267 10267 10265 10265 10264 10264 10264 10263 10262 10262 10262 10261 10260 10260 10259 10258 10257 10257 10256 10255 10255 10254 10254 10254 10253 10253 10252 10250 10249 10247 10246 10245 10245 10244 10243 10242 10240 10239 10238 10237 10235 10234 10232 10230 10229 10229 10227 10226 10225 10224 10222 10220 10220 10219 10218 10217 10215 10213 10210 10209 10206 10204 10202 10200 10197 10195 10193 10190 10189 10186 10185 10183 10181 10179 10177 10176
10265 10264 10264 10264 10264 10264 10263 10262 10262 10262 10261 10260 10260 10259 10259 10258 10257 10257 10257 10256 10256 10255 10255 10254 10253 10252 10251 10250 10250 10250 10250 10249 10249 10248 10247 10247 10246 10245 10244 10242 10240 10239 10239 10238 10237 10236 10235 10234 10232 10231 10230 10229 10227 10225 10224 10223 10222 10221 10220 10218 10215 10214 10214 10214 10212 10211 10210 10207 10205 10203 10201 10199 10197 10194 10192 10189 10187 10185 10182 10180 10178 10176 10174 10172 10170 10169
10260 10260 10259 10259 10259 10259 10258 10257 10257 10256 10255 10255 10254 10254 10253 10252 10252 10252 10251 10251 10250 10250 10249 10249 10247 10246 10245 10245 10245 10244 10244 10244 10244 10243 10242 10241 10240 10239 10237 10236 10235 10234 10232 10232 10231 10230 10229 10229 10227 10226 10225 10224 10222 10220 10219 10217 10217 10216 10215 10213 10210 10209 10208 10207 10207 10205 10204 10202 10200 10198 10195 10194 10191 10189 10186 10184 10181 10179 10177 10174 10172 10170 10168 10166 10165 10162
10255 10255 10254 10254 10254 10253 10252 10252 10251 10250 10250 10249 10249 10248 10247 10247 10247 10246 10245 10245 10245 10244 10244 10243 10242 10240 10240 10239 10239 10239 10239 10239 10238 10237 10236 10235 10234 10233 10232 10230 10229 10228 10227 10226 10225 10224 10224 10223 10222 10220 10220 10219 10217 10215 10213 10212 10212 10211 10210 10208 10206 10204 10202 10201 10200 10200 10198 10196 10194 10192 10190 10189 10186 10184 10181 10178 10175 10173 10171 10169 10166 10164 10162 10160 10158 10156
10250 10250 10249 10249 10249 10248 10247 10247 10246 10245 10245 10244 10244 10243 10242 10242 10242 10241 10240 10240 10239 10239 10238 10237 10236 10235 10234 10234 10234 10234 10234 10234 10233 10232 10230 10229 10228 10227 10226 10225 10224 10223 10222 10220 10219 10219 10218 10218 10217 10215 10215 10214 10212 10210 10209 10207 10206 10205 10205 10204 10202 10200 10197 10195 10194 10194 10192 10190 10189 10187 10185 10183 10181 10179 10176 10173 10170 10168 10165 10163 10160 10158 10156 10154 10151 10149
10245 10245 10245 10244 10244 10243 10242 10242 10241 10240 10240 10239 10239 10238 10238 10237 10237 10236 10235 10235 10234 10234 10233 10232 10231 10230 10229 10229 10228 10228 10228 10228 10227 10226 10225 10224 10223 10222 10220 10220 10219 10218 10217 10215 10214 10213 10212 10212 10211 10210 10210 10209 10207 10205 10204 10203 10202 10200 10199 10199 10197 10195 10193 10190 10189 10187 10186 10184 10183 10182 10180 10178 10176 10174 10171 10169 10165 10162 10160 10157 10154 10152 10150 10147 10145 10143
10241 10240 10240 10239 10239 10238 10237 10237 10236 10235 10235 10234 10234 10233 10233 10232 10232 10231 10230 10229 10229 10228 10227 10227 10225 10225 10224 10223 10223 10223 10222 10222 10221 10220 10220 10219 10218 10217 10216 10215 10214 10213 10212 10210 10209 10208 10207 10207 10206 10205 10205 10204 10202 10201 10199 10198 10197 10196 10195 10194 10192 10190 10189 10186 10184 10182 10180 10179 10177 10175 10174 10173 10171 10169 10167 10164 10160 10157 10155 10152 10149 10146 10144 10141 10139 10137
10237 10236 10235 10235 10234 10234 10232 10232 10232 10231 10230 10229 10229 10229 10228 10227 10227 10226 10225 10224 10224 10223 10222 10222 10220 10220 10219 10219 10218 10218 10217 10216 10215 10215 10214 10214 10213 10212 10211 10210 10209 10208 10207 10205 10204 10203 10202 10202 10201 10200 10200 10199 10198 10197 10195 10194 10193 10192 10190 10189 10187 10185 10184 10182 10180 10179 10177 10174 10172 10170 10169 10168 10166 10164 10162 10159 10156 10153 10149 10147 10144 10140 10137 10135 10132 10130
10232 10232 10231 10230 10230 10229 10228 10227 10227 10226 10225 10225 10224 10224 10223 10222 10222 10221 10220 10220 10219 10218 10217 10217 10216 10215 10214 10214 10213 10212 10212 10210 10210 10209 10209 10209 10209 10207 10207 10205 10204 10203 10202 10200 10199 10198 10197 10197 10196 10196 10195 10194 10193 10192 10190 10190 10189 10187 10186 10184 10182 10180 10179 10177 10175 10174 10172 10170 10168 10166 10164 10162 10161 10159 10157 10155 10152 10149 10145 10142 10138 10135 10132 10129 10127 10125
10228 10227 10227 10226 10225 10225 10224 10223 10222 10222 10221 10220 10220 10219 10219 10218 10217 10217 10215 10215 10214 10214 10212 10212 10211 10210 10210 10209 10209 10207 10207 10205 10205 10204 10204 10204 10204 10203 10202 10201 10199 10198 10197 10195 10194 10193 10192 10192 10192 10191 10191 10190 10189 10187 10186 10185 10185 10184 10182 10180 10178 10176 10174 10172 10170 10169 10167 10165 10164 10161 10160 10158 10156 10155 10153 10151 10149 10145 10142 10137 10133 10129 10126 10124 10121 10119
10224 10223 10222 10222 10221 10220 10220 10219 10218 10217 10217 10216 10215 10215 10214 10214 10213 10212 10211 10210 10210 10209 10208 10207 10207 10206 10205 10205 10204 10203 10202 10200 10200 10200 10200 10199 10199 10198 10197 10196 10195 10194 10192 10190 10190 10189 10188 10187 10187 10187 10187 10186 10185 10183 10182 10181 10180 10179 10177 10175 10174 10172 10170 10168 10166 10164 10162 10160 10159 10157 10155 10153 10152 10150 10149 10147 10145 10142 10139 10134 10129 10124 10120 10118 10116 10114
10220 10219 10218 10217 10217 10216 10215 10215 10214 10213 10212 10212 10211 10210 10210 10209 10209 10208 10207 10206 10205 10204 10204 10203 10202 10202 10200 10200 10199 10198 10197 10197 10196 10195 10195 10195 10194 10194 10192 10191 10190 10189 10187 10186 10185 10184 10183 10182 10182 10182 10182 10182 10181 10179 10177 10177 10175 10174 10172 10170 10169 10167 10165 10164 10162 10160 10158 10155 10154 10152 10150 10148 10147 10145 10145 10143 10141 10139 10135 10131 10125 10120 10115 10113 10110 10109
10215 10215 10214 10213 10212 10212 10211 10210 10210 10209 10208 10207 10207 10206 10205 10205 10204 10204 10203 10202 10201 10200 10199 10199 10198 10197 10196 10195 10195 10194 10193 10192 10192 10192 10191 10190 10190 10189 10187 10187 10185 10184 10183 10182 10180 10179 10179 10178 10177 10177 10178 10178 10177 10176 10174 10172 10171 10169 10167 10166 10165 10163 10162 10160 10158 10155 10154 10151 10149 10147 10145 10143 10142 10140 10139 10138 10136 10134 10131 10127 10122 10116 10111 10107 10105 10103